Volver al catálogo

STARLINK-5266

ActivoComunicacionesVLEO
NORAD 55290·PAYLOAD·🇺🇸 United States

Lanzado Jan 19, 2023 desde Vandenberg Space Force Base

Loading…

Próximos Pases (próximas 24 horas)

TLE

ActualizadoSource: CelesTrak SupGP

Época: Sep 14, 2026, 21:24 UTC

1 55290C 23010X   26257.89215278  .00065000  00000+0  54470-2 0  2570
2 55290  69.9995 267.4423 0003824 265.2489 287.4765 14.98297797    14

Sigue STARLINK-5266 en tiempo real con AllMySat

Download on the App Store